User: anonymous   Login
Location: ??
(35.5052°N, 139.7262°E)
Time: 06:43:59
(UTC+00:00)
Language:

deb Kosmos-2227 - Orbit

View from above orbital plane
View from above orbital plane
View from above satellite
View from above satellite

Ground track
Ground track

The orbit data is extracted from the following two-line orbital elements,

1 22475U 92093FQ  22028.38637795  .00004504  00000-0  69321-3 0  9992
2 22475  71.2916  23.4357 0037518 214.2481 145.6255 14.73542247525681
Epoch (UTC): 28 January 2022 09:16:23
Eccentricity: 0.0037518
inclination: 71.2916°
perigee height: 623 km
apogee height: 676 km
right ascension of ascending node: 23.4357°
argument of perigee: 214.2481°
revolutions per day: 14.73542247
mean anomaly at epoch: 145.6255°
orbit number at epoch: 52568

The dashed part of the orbit path shows where the satellite is in the earth's shadow,  

DLR